EHI
0 0 0 0 0 0 0 0 0 0 0 0 0 0 0 0 0 0 0 0 0 0 0 0 0 0 0 0 0 0 0 0 0 0 0 0 0 0
0 0 0 0 0 0 0 0 0 0 0 0 0 0 0 0 0 0 0 0 0 0 0 0 0 0 0 0 0 0 0 0 0 0 0 0 0 0
0 0 0 0 0 0 0 0 0 0 0 0 0 0 0 0 0 0 0 0 0 0 0 0 0 0 0 0 0 0 0 0 0 0 0 0 0 0
0 0 0 0 0 0 0 0 0 0 0 0 0 0 0 0 0 0 0 0 0 0 0 0 0 0 0 0 0 0 0 0 0 0 0 0 0 0
0 0 0 0 0 0 0 0 0 0 0 0 0 0 0 0 0 0 0 0 0 0 0 0 0 0 0 0 0 0 0 0 0 0 0 0 0 0
0 0 0 0 0 0 0 0 0 0 0 0 0 0 0 0 0 0 0 0 0 0 0 0 0 0 0 0 0 0 0 0 0 0 0 0 0 0
0 0 0 0 0 0 0 0 0 0 0 0 0 0 0 0 0 0 0 0 0 0 0 0 0 0 0 0 0 0 0 0 0 0 0 0 0 0
0 0 0 0 0 0 0 0 0 0 0 0 0 0 0 0 0 0 0 0 0 0 0 0 0 0 0 0 0 0 0 0 0 0 0 0 0 0
0 0 0 0 0 0 0 0 0 0 0 0 0 0 0 0 0 0 0 0 0 0 0 0 0 0 0 0 0 0 0 0 0 0 0 0 0 0
0 0 0 0 0 0 0 0 0 0 0 0 0 0 0 0 0 0 0 0 0 0 0 0 0 0 0 0 0 0 0 0 0 0 0 0 0 0
0 0 0 0 0 0 0 0 0 0 0 0 0 0 0 0 0 0 0 0 0 0 0 0 0 0 0 0 0 0 0 0 0 0 0 0 0 0
0 0 0 0 0 0 0 0 0 0 0 0 0 0 0 0 0 0 0 0 0 0 0 0 0 0 0 0 0 0 0 0 0 0 0 0 0 0
0 0 0 0 0 0 0 0 0 0 0 0 0 0 0 0 0 0 0 0 0 0 0 0 0 0 0 0 0 0 0 0 0 0 0 0 0 0
0 0 0 0 0 0 0 0 0 0 0 0 0 0 0 0 0 0 0 0 0 0 0 0 0 0 0 0 0 0 0 0 0 0 0 0 0 0
0 0 0 0 0 0 0 0 0 0 0 0 0 0 0 0 0 0 0 0 0 0 0 0 0 0 0 0 0 0 0 0 0 0 0 0 0 0
0 0 0 0 0 0 0 0 0 0 0 0 0 0 0 0 0 0 0 0 0 0 0 0 0 0 0 0 0 0 0 0 0 0 0 0 0 0
0 0 0 0 0 0 0 0 0 0 0 0 0 0 0 0 0 0 0 0 0 0 0 0 0 0 0 0 0 0 0 0 0 0 0 0 0 0
0 0 0 0 0 0 0 0 0 0 0 0 0 0 0 0 0 0 0 0 0 0 0 0 0 0 0 0 0 0 0 0 0 0 0 0 0 0
0 0 0 0 0 0 0 0 0 0 0 0 0 0 0 0 0 0 0 0 0 0 0 0 0 0 0 0 0 0 0 0 0 0 0 0 0 0
0 0 0 0 0 0 0 0 0 0 0 0 0 0 0 0 0 0 0 0 0 0 0 0 0 0 0 0 0 0 0 0 0 0 0 0 0 0
0 0 0 0 0 0 0 0 0 0 0 0 0 0 0 0 0 0 0 0 0 0 0 0 0 0 0 0 0 0 0 0 0 0 0 0 0 0
0 0 0 0 0 0 0 0 0 0 0 0 0 0 0 0 0 0 0 0 0 0 0 0 0 0 0 0 0 0 0 0 0 0 0 0 0 0
0 0 0 0 0 0 0 0 0 0 0 0 0 0 0 0 0 0 0 0 0 0 0 0 0 0 0 0 0 0 0 0 0 0 0 0 0 0
Wind_Speed
4 4 4 4 4 4 4 4 5 10 8 5 4 4 5 5 11 8 6 15 22 22 21 21 21 22 22 22 22 21 21 20 20 20 20 19 19 18
3 3 4 3 4 4 4 4 4 7 10 4 5 5 6 9 14 9 8 22 22 22 22 22 21 22 22 23 23 23 22 22 22 21 21 20 20 20
4 4 5 5 4 4 4 4 5 5 10 8 4 5 6 8 10 8 9 9 10 20 22 21 21 21 21 22 22 22 22 22 22 22 21 21 20 20
5 5 6 6 6 5 5 6 6 6 7 12 7 5 7 8 9 10 10 10 8 17 21 22 21 20 19 19 19 19 19 18 19 21 22 21 21 20
5 6 7 7 7 7 7 7 6 7 7 9 10 6 6 7 8 10 11 9 10 13 17 19 20 20 19 17 17 16 16 17 17 18 19 20 20 20
6 6 7 7 8 8 7 7 7 7 8 8 9 8 8 8 7 8 9 7 9 10 13 15 18 20 19 18 17 16 15 16 16 17 17 17 17 17
7 8 8 12 14 11 9 8 8 7 8 8 9 9 8 7 7 7 9 8 9 8 8 8 8 7 9 13 16 17 15 15 16 16 17 16 16 15
8 9 10 10 13 16 18 18 16 12 10 9 8 9 9 8 7 7 8 8 7 4 5 7 5 7 7 6 12 14 14 14 15 16 16 16 15 15
8 8 9 10 12 8 13 17 16 17 17 11 10 9 9 8 8 9 8 8 8 5 5 7 5 7 6 7 13 13 13 13 13 14 15 15 15 14
8 8 9 9 9 10 10 11 10 10 11 8 8 9 9 8 8 8 8 8 7 7 5 5 4 4 5 5 10 12 12 12 12 13 13 13 13 13
9 9 9 8 12 13 10 10 11 9 10 11 11 10 11 11 8 5 5 6 5 4 2 3 2 3 3 4 5 9 10 11 11 11 12 12 12 11
8 8 10 10 14 14 9 8 9 9 9 9 8 8 6 6 7 5 5 5 4 3 2 3 2 2 3 2 2 2 4 7 10 11 12 12 11 7
7 7 7 13 14 14 10 6 9 10 7 7 6 5 5 4 4 4 4 4 4 3 3 3 3 2 3 3 2 2 2 2 3 5 9 12 13 10
7 6 8 14 14 13 9 9 11 9 5 5 4 4 4 4 4 4 4 4 3 4 5 4 2 2 2 2 3 2 2 3 3 4 4 8 11 12
6 11 13 13 11 8 10 11 8 5 4 4 4 4 4 5 5 4 4 4 4 3 4 4 4 3 2 2 2 2 2 2 2 3 4 5 5 6
7 9 11 10 8 8 8 7 5 4 4 4 4 4 4 4 4 4 3 4 3 4 4 5 5 5 4 3 2 2 2 1 0 2 3 4 5 5
7 4 4 5 6 6 6 6 5 5 5 5 4 4 4 4 4 4 4 4 4 5 6 5 4 2 6 9 4 5 4 3 3 3 5 6 5 5
6 5 5 5 6 6 6 6 5 5 5 4 4 4 4 5 5 4 4 5 5 6 7 7 7 5 3 7 16 8 7 7 7 8 7 7 6 5
5 5 5 6 6 6 6 6 5 6 5 4 4 4 4 5 4 5 5 6 6 7 7 8 8 7 8 9 12 18 10 8 9 10 10 8 7 7
5 6 6 6 6 6 6 6 6 6 5 5 4 4 4 4 5 5 6 7 7 7 8 9 9 8 8 6 6 11 20 11 9 10 10 10 10 13
6 6 6 6 6 6 7 7 6 6 6 5 4 4 3 4 4 5 6 8 7 7 8 9 9 10 5 5 8 11 15 23 20 10 7 8 9 10
6 6 6 6 6 6 7 7 7 6 7 5 4 3 3 3 4 5 5 6 6 7 8 8 8 8 8 10 11 11 12 14 21 30 27 18 7 7
6 6 6 6 6 6 7 7 8 6 6 5 4 3 2 2 2 3 4 5 6 7 7 7 7 8 10 10 11 11 16 14 12 15 17 25 28 26
Wind_Direction
268 267 261 263 259 253 246 239 265 290 287 256 258 259 265 272 282 285 275 291 296 293 289 284 280 277 273 269 266 263 261 259 258 258 260 263 265 267
298 301 295 286 284 277 268 259 248 268 285 262 251 257 272 287 291 288 279 291 291 289 286 281 276 273 269 265 261 258 256 254 253 253 254 256 258 260
348 337 316 304 293 289 280 270 263 261 281 286 257 264 269 273 283 280 278 274 276 282 283 282 278 274 270 266 261 256 253 250 249 249 250 250 253 256
334 325 312 310 300 288 278 271 267 260 269 286 284 272 265 266 270 274 283 282 274 281 283 282 279 277 272 266 260 254 248 244 244 246 247 248 250 252
315 307 299 298 293 288 281 275 271 273 264 275 283 275 270 271 276 278 276 274 277 280 281 280 279 279 273 267 261 251 243 238 237 238 241 244 247 249
305 295 290 287 283 283 284 276 277 276 272 273 278 278 275 271 267 273 280 272 273 277 278 276 275 276 274 269 262 252 241 234 232 232 233 234 236 240
308 300 297 305 308 308 307 298 291 284 281 278 279 281 280 278 272 269 276 278 273 264 266 268 269 266 267 266 263 257 245 235 230 229 228 226 226 229
305 304 305 306 312 317 315 312 306 298 293 286 283 282 284 279 278 277 279 282 280 250 251 269 260 261 258 249 251 251 246 240 231 226 223 220 220 223
300 303 309 311 314 308 311 313 308 303 298 292 288 287 287 286 285 284 280 281 280 272 268 272 257 257 254 253 250 245 241 237 232 224 220 219 218 219
301 299 299 303 308 312 311 307 304 301 299 296 285 286 287 287 285 286 288 286 276 271 257 265 261 257 259 251 249 243 238 234 228 222 218 216 214 214
305 304 305 305 307 313 313 310 309 307 311 307 298 293 292 294 296 293 290 292 294 285 262 267 275 277 271 260 249 240 235 230 226 223 217 212 209 206
311 311 312 311 313 316 314 310 311 314 316 318 316 315 311 307 314 308 309 306 303 295 335 311 281 290 291 283 270 242 230 232 228 223 218 211 199 192
313 316 315 318 320 321 319 306 305 308 310 312 314 315 316 316 316 315 313 310 309 298 321 309 284 278 272 290 288 248 221 222 221 222 217 206 194 186
309 312 314 320 325 327 328 324 325 324 316 319 323 326 325 326 322 317 312 312 310 306 317 317 293 296 288 279 283 282 250 225 215 212 199 191 190 187
311 319 326 331 334 331 330 335 337 333 327 327 328 324 320 322 325 323 320 314 309 326 344 347 338 316 303 294 290 282 279 250 217 194 179 174 171 171
327 325 328 334 342 337 334 336 335 331 330 327 327 321 324 337 344 339 335 340 337 336 340 347 358 6 358 333 334 342 331 319 154 139 136 132 138 145
326 329 343 342 346 343 340 338 338 340 340 337 338 344 352 358 356 350 354 358 8 3 360 351 340 343 37 22 12 15 20 37 49 88 105 103 101 107
354 346 345 346 344 343 342 339 335 340 340 345 351 360 6 8 9 7 10 18 22 21 17 7 4 9 14 44 26 21 29 38 51 63 76 84 81 74
5 350 348 346 343 342 342 342 344 344 347 355 4 8 15 17 19 22 23 28 32 33 30 24 22 25 45 42 24 23 32 42 54 60 59 62 66 62
357 350 346 344 344 345 345 345 346 348 354 0 4 12 21 25 29 32 33 36 38 40 40 35 31 30 39 39 32 31 36 41 50 61 64 67 69 70
351 348 344 344 346 347 347 347 349 352 356 1 7 13 21 32 39 38 40 37 43 46 48 41 26 21 26 49 61 52 48 49 54 52 50 64 65 62
347 345 345 347 348 348 347 350 352 355 358 1 0 7 18 38 50 49 46 48 50 53 56 48 35 37 49 62 64 59 59 58 57 58 56 56 64 65
344 343 345 347 348 346 347 350 351 351 353 353 353 352 6 32 51 62 61 61 62 62 62 60 55 55 59 63 67 65 62 60 61 64 63 65 73 78